MSAT M1

Last updated on Dec. 2, 2020, 6:18 a.m. UTC

1 23846U 96022A   20336.55210939 -.00000239  00000-0  00000-0 0  9995
2 23846   9.5073  40.6500 0017648 167.3481 209.5207  0.98647972 90129
UTC
Height (km)
Latitude
Longitude
Inclination
Orbital Period
UTC large
Height (km)
Speed (km/s)
/
Latitude / Longitude
Inclination (degrees)
Orbital Period (minutes)
Azimuth
Elevation
Range (km)
Doppler Factor
iOS Compass Heading
iOS Angle

Next 30 passes for location: Hong Kong

Rise time Rise Azimuth (degrees) Set time Set Azimuth (degrees) Duration Max altitude (degrees)

No matching passes for this satellites